This is the latest recevied weather packets stored in our database for station/object WR7DW-3. If no packets are shown the sender has not sent any weather packets the latest 10 day(s).
| Time | Temp. | Humidity | Pressure | Rain* | Wind** | Luminosity | Snow |
|---|---|---|---|---|---|---|---|
| 1777792489 | 7.78° C | 54% | 1007.7 hPa | 0 mm | - | - | - |
| 1777791585 | 7.78° C | 53% | 1007.7 hPa | 0 mm | - | - | - |
| 1777790685 | 7.78° C | 53% | 1007.8 hPa | 0 mm | - | - | - |
| 1777789785 | 7.78° C | 53% | 1007.7 hPa | 0 mm | - | - | - |
| 1777788885 | 7.78° C | 53% | 1007.6 hPa | 0 mm | - | - | - |
| 1777787985 | 8.33° C | 53% | 1007.5 hPa | 0 mm | - | - | - |
| 1777787086 | 8.33° C | 52% | 1007.6 hPa | 0 mm | - | - | - |
| 1777785285 | 8.33° C | 52% | 1007.7 hPa | 0 mm | - | - | - |
| 1777784386 | 8.33° C | 52% | 1007.6 hPa | 0 mm | - | - | - |
| 1777783486 | 8.33° C | 51% | 1007.7 hPa | 0 mm | - | - | - |
| 1777782586 | 8.33° C | 52% | 1007.7 hPa | 0 mm | - | - | - |
| 1777781686 | 8.33° C | 51% | 1007.8 hPa | 0 mm | - | - | - |
| 1777780786 | 8.33° C | 50% | 1007.7 hPa | 0 mm | - | - | - |
| 1777779886 | 8.33° C | 51% | 1007.6 hPa | 0 mm | - | - | - |
| 1777778986 | 8.33° C | 54% | 1007.7 hPa | 0 mm | - | - | - |
| 1777778086 | 8.33° C | 56% | 1007.6 hPa | 0 mm | - | - | - |
| 1777777187 | 8.33° C | 54% | 1007.5 hPa | 0 mm | - | - | - |
| 1777776286 | 8.33° C | 54% | 1007.4 hPa | 0 mm | - | - | - |
| 1777775386 | 8.89° C | 53% | 1007.5 hPa | 0 mm | - | - | - |
| 1777774486 | 8.89° C | 53% | 1007.5 hPa | 0 mm | - | - | - |
| 1777773586 | 9.44° C | 51% | 1007.4 hPa | 0 mm | - | - | - |
| 1777772686 | 9.44° C | 51% | 1007.5 hPa | 0 mm | - | - | - |
| 1777771787 | 10° C | 50% | 1007.7 hPa | 0 mm | - | - | - |
| 1777770886 | 8.89° C | 52% | 1007.9 hPa | 0 mm | - | - | - |
| 1777769986 | 8.89° C | 50% | 1007.9 hPa | 0 mm | - | - | - |
* Rain latest hour (hover to see other rain measurements)
** Current wind speed in m/s (hover to see current wind gust speed)